www.pogodaiklimat.ru

Погода и климат >> Архив погоды >> Россия >> Томская область >> Тегульдет


ПОГОДА в Тегульдете

  • Прогноз погоды в Тегульдете
  • Монитор погоды в Тегульдете

АРХИВ ПОГОДЫ в Тегульдете

Время (UTC), дата Ветер
(напр.,м/с)
 
Видим.   Явления Облачность Т
(С)
Тd
(С)
f
(%)
Тe
(С)
Тes
(С)
Комфортность P
(гПа)
Po
(гПа)
Тmin
(С)
Tmax
(С)
R
(мм)
R24
(мм)
S
(см)
00 17.01 ЮЗ 2 10 км {снег} 10/0
[As op]
-13.1 -15.0 86 -18 -18 1026.1 1008.1 -22.5 0.0 38
03 17.01 ЮЗ 2 10 км 10/0
[Ac und]
-13.3 -15.3 85 -18 -18 1027.7 1009.6
06 17.01 ЮЗ 2 10 км 10/0
[Ac und]
-11.4 -13.7 83 -16 -16 1028.2 1010.3
09 17.01 ЮЗ 2 4000 м слаб. снег 10/0
[As op]
-9.8 -12.1 83 -14 -14 1029.3 1011.5
12 17.01 З 2 4000 м слаб. снег 10/10 600 м
[Sc]
-9.5 -11.5 85 -14 -14 1031.6 1013.7 -9.5 0.0
15 17.01 З 2 4000 м слаб. снег 10/10 600 м
[Sc]
-9.7 -11.9 84 -14 -14 1032.4 1014.5
18 17.01 ЮЗ 1 4000 м слаб. снег 10/10 600 м
[Sc]
-10.6 -12.6 85 -13 -13 1033.7 1015.7
21 17.01 Ю 2 4000 м {снег} 10/10 300 м
[St]
-10.1 -12.0 86 -15 -15 1033.9 1016.0
00 18.01 Ю 1 10 км {снег} 10/10 300 м
[St]
-9.6 -11.8 84 -12 -12 1034.1 1016.2 -11.5 0.0 38
03 18.01 Ю 1 10 км 10/0
[As op]
-9.1 -11.8 81 -11 -11 1034.2 1016.3
06 18.01 Ю 3 10 км ясно -8.2 -12.0 74 -14 -13 1033.2 1015.4
09 18.01 Ю 2 10 км 8/0
[Cs]
-7.9 -11.5 75 -12 -12 1030.7 1013.0
12 18.01 Ю 1 10 км 9/0
[Cs]
-13.4 -14.9 88 -16 -16 1030.0 1011.9 -7.7
15 18.01 Ю 2 10 км 10/0
[Cs]
-9.2 -12.3 78 -14 -14 1027.9 1010.1
18 18.01 Ю 2 10 км 10/0
[As op]
-9.1 -12.6 76 -14 -14 1025.8 1008.1
21 18.01 Ю 2 10 км 10/0
[As op]
-8.9 -12.0 78 -13 -13 1023.5 1005.8
00 19.01 Ю 2 10 км 6/0
[Ci fib]
-11.7 -13.2 89 -16 -16 1021.9 1004.0 -13.4 38
03 19.01 Ю 1 10 км 4/0
[Ci fib]
-10.9 -12.2 90 -13 -13 1021.1 1003.3
09 19.01 ЮЗ 3 10 км 10/0
[As op]
-3.8 -8.9 68 -9 -9 1018.4 1001.1
12 19.01 ЮЗ 3 10 км 10/0
[As op]
-4.2 -9.8 65 -9 -9 1018.8 1001.5 -3.7
15 19.01 ЮЗ 3 10 км 10/0
[As op]
-3.4 -9.5 63 -8 -8 1019.3 1002.0
18 19.01 ЮЗ 3 10 км 10/0
[As op]
-4.3 -9.8 65 -9 -9 1020.0 1002.6
21 19.01 ЮЗ 2 10 км 10/0
[As op]
-4.9 -9.8 68 -9 -9 1020.5 1003.2
00 20.01 Ю 2 10 км 10/0
[As op]
-6.5 -10.6 73 -11 -11 1019.8 1002.3 -6.3 38
06 20.01 ЮЗ 3 10 км 10/0
[As op]
-5.6 -9.1 76 -11 -11 1017.4 1000.0
12 20.01 ЮЗ 3 10 км 10/0
[As op]
-3.9 -7.5 76 -9 -9 1016.9 999.7 -3.8
18 20.01 З 1 4000 м слаб. снег 10/0 300 м
[As op]
-3.6 -4.5 93 -6 -6 1018.0 1000.8

 

Местоположение метеостанции Тегульдет (Томская область, Россия): широта 57.30 долгота 88.15 высота над уровнем моря 132 м.

В архиве по умолчанию представлена погода в Тегульдете за последнюю неделю. Архивные данные за месяц целиком и за предыдущие месяцы, начиная с января 2011 года, Вы можете получить, выбрав интересующий диапазон дат из раскрывающегося списка и нажав кнопку "Ввод!".


*Определитесь, кто Вы:
робот инопланетянин человек

Внимание! Время в таблицах - всемирное. Для получения местного времени необходимо прибавить поправку, которая равна 7 ч.

Смотрите также архив погоды в соседних городах и на ближайших метеорологических станциях:

Погода в Тюхтете (Красноярский край, Россия) (111 км)
Погода в Первомайском (Томская область, Россия) (119 км)
Погода в Мариинске (Кемеровская область, Россия) (128 км)
Погода в Тяжине (Кемеровская область, Россия) (133 км)
Погода в Лосиноборске (Красноярский край, Россия) (145 км)
Погода в Новобирилюссах (Красноярский край, Россия) (145 км)
Погода в Боготоле (Красноярский край, Россия) (148 км)
Погода в Яе (Кемеровская область, Россия) (160 км)
Погода в Большом Улуе (Красноярский край, Россия) (162 км)
Погода в Степановке (Томская область, Россия) (170 км)

Пояснения к столбцам:

Ветер - указаны скорость ветра в м/с - средняя за 10 мин, порывы в срок и между сроками (в фигурных скобках) и направление, откуда дует ветер: С - северный, СВ - северо-восточный, В - восточный, ЮВ - юго-восточный, Ю - южный, ЮЗ - юго-западный, З - западный, СЗ - северо-западный.
Видимость - горизонтальная дальность видимости в метрах или километрах. При видимости от 1 до 10 км при отсутствии осадков обычно наблюдается дымка, при ухудшении видимости до 1 км и менее - туман. В сухую погоду видимость может ухудшаться дымом, пылью или мглою.
Явления - указаны атмосферные явления, наблюдавшиеся в срок или в последний час перед сроком; фигурными скобками обозначены явления, наблюдавшиеся между сроками (за 1-3 часа до срока); квадратными скобками обозначены град или гололедные отложения с указанием их диаметра в мм.
Облачность - указаны через наклонную черту общая и нижняя облачность в баллах и высота нижней границы облаков в метрах; квадратными скобками обозначены формы облаков: Ci - перистые, Cs - перисто-слоистые, Cc - перисто-кучевые, Ac - высококучевые, As - высокослоистые, Sc - слоисто-кучевые, Ns - слоисто-дождевые, Cu - кучевые, Cb - кучево-дождевые. Подробнее классификацию облаков см. в Атласе облаков (PDF).
T - Температура воздуха - температура, измеренная на высоте 2 м над землей.
Td - Температура точки росы - температура, при понижении до которой содержащийся в воздухе водяной пар достигнет насыщения.
f - Относительная влажность воздуха - влажноcть воздуха, измеренная на высоте 2 м над землей.
Te - Эффективная температура - температура, которую ощущает одетый по сезону человек в тени. Характеристика душности погоды. При расчете учитывается влияние влажности воздуха и скорости ветра на теплоощущения человека.
Tes - Эффективная температура на солнце - температура, которую ощущает человек, с поправкой на солнечный нагрев. Характеристика знойности погоды. Зависит от высоты солнца над горизонтом, облачности и скорости ветра. Ночью, в пасмурную погоду, а также при ветре 12 м/с и более поправка равна нулю.
P - Атмосферное давление - приведенное к уровню моря атмосферное давление.
Po - Атмосферное давление - измеренное на уровне метеостанции атмосферное давление.
Tmin - Минимальная температура - минимум температуры воздуха на высоте 2 м над землей.
Tmax - Максимальная температура - максимум температуры воздуха на высоте 2 м над землей.
R - Количество осадков - Количество выпавших осадков за период времени, мм. При наведении курсора мыши на число - период времени, за который выпало указанное количество осадков.
R24 - Количество осадков - Количество выпавших осадков за 24 часа, мм.
S - Снежный покров - Высота снежного покрова, см. При наведении курсора мыши на число - состояние снежного покрова и степень покрытия местности в баллах.